Location: *
(32.3758°S, 63.1185°E)
Time: 23:50:44
(UTC+00:00)

Cosmos 1140 Rocket - Pass Details

Date: 02 June 2023
Orbit: 742 x 766 km, 74.1° (Epoch: 03 October)

Event Time Altitude Azimuth Distance (km) Brightness Sun altitude
Rises 13:14:17 0° 201° (SSW) 3,231 6.7 -5.5°
Reaches altitude 10° 13:16:41 10° 204° (SSW) 2,303 6.0 -6.0°
Maximum altitude 13:21:50 63° 284° (WNW) 852 4.1 -7.0°
Drops below altitude 10° 13:26:58 10° 4° (N) 2,289 6.2 -8.0°
Sets 13:29:21 0° 7° (N) 3,210 6.9 -8.5°
